This is the latest recevied weather packets stored in our database for station/object OH5GWF-1. If no packets are shown the sender has not sent any weather packets the latest 10 day(s).
| Time | Temp. | Humidity | Pressure | Rain* | Wind** | Luminosity | Snow |
|---|---|---|---|---|---|---|---|
| 1777803648 | 15.56° C | 59% | 1007.1 hPa | 0 mm | - | - | - |
| 1777803357 | 16.11° C | 58% | 1007.2 hPa | 0 mm | - | - | - |
| 1777803040 | 16.11° C | 60% | 1007.1 hPa | 0 mm | - | - | - |
| 1777802935 | 16.11° C | 60% | 1006.9 hPa | 0 mm | - | - | - |
| 1777802513 | 15° C | 60% | 1006.8 hPa | 0 mm | - | - | - |
| 1777802333 | 14.44° C | 61% | 1007 hPa | 0 mm | - | - | - |
| 1777802090 | 15° C | 59% | 1007 hPa | 0 mm | - | - | - |
| 1777801669 | 16.11° C | 58% | 1007 hPa | 0 mm | - | - | - |
| 1777801257 | 15.56° C | 59% | 1007 hPa | 0 mm | - | - | - |
| 1777801004 | 15.56° C | 59% | 1007.1 hPa | 0 mm | - | - | - |
| 1777800834 | 15.56° C | 61% | 1007.1 hPa | 0 mm | - | - | - |
| 1777800412 | 14.44° C | 64% | 1006.9 hPa | 0 mm | - | - | - |
| 1777800353 | 13.89° C | 64% | 1007 hPa | 0 mm | - | - | - |
| 1777799990 | 13.33° C | 63% | 1007 hPa | 0 mm | - | - | - |
| 1777799690 | 13.33° C | 65% | 1006.8 hPa | 0 mm | - | - | - |
| 1777799580 | 13.33° C | 65% | 1006.9 hPa | 0 mm | - | - | - |
| 1777799157 | 12.78° C | 66% | 1006.8 hPa | 0 mm | - | - | - |
| 1777799025 | 12.78° C | 66% | 1006.7 hPa | 0 mm | - | - | - |
| 1777798734 | 12.78° C | 66% | 1006.6 hPa | 0 mm | - | - | - |
| 1777798363 | 12.22° C | 65% | 1006.7 hPa | 0 mm | - | - | - |
| 1777798313 | 12.22° C | 65% | 1006.7 hPa | 0 mm | - | - | - |
| 1777797891 | 12.78° C | 64% | 1006.5 hPa | 0 mm | - | - | - |
| 1777797711 | 12.78° C | 64% | 1006.5 hPa | 0 mm | - | - | - |
| 1777797480 | 12.78° C | 64% | 1006.5 hPa | 0 mm | - | - | - |
| 1777797047 | 12.78° C | 64% | 1006.4 hPa | 0 mm | - | - | - |
* Rain latest hour (hover to see other rain measurements)
** Current wind speed in m/s (hover to see current wind gust speed)